カタログに戻る

STARLINK-2611

運用中通信VLEO
NORAD 48364·PAYLOAD·🇺🇸 United States

打ち上げ May 4, 2021 から Cape Canaveral Space Force Station

Loading…

次のパス (今後24時間)

TLE

最新Source: CelesTrak SupGP

元期: Sep 14, 2026, 20:24 UTC

1 48364C 21038M   26257.85048611  .00005992  00000+0  19272-3 0  2579
2 48364  53.1572 187.4874 0001359  98.4819 334.3560 15.31694029    11

AllMySatでSTARLINK-2611をリアルタイム追跡

Download on the App Store